Location: Bolzano
(46.5170°N, 11.3670°E)
Time: 05:07:38
(UTC+02:00)

ISS - Visible Passes

Search period start: 27 September 2020 00:00
Search period end: 07 October 2020 00:00
Orbit: 419 x 421 km, 51.6° (Epoch: 28 September)

Date Brightness Start Highest point End Pass type
(mag) Time Alt. Az. Time Alt. Az. Time Alt. Az.
27 Sep -2.7 21:01:39 10° WNW 21:04:38 37° N 21:04:38 37° N visible
28 Sep -2.6 20:14:22 10° WNW 20:17:30 34° N 20:19:09 21° ENE visible
28 Sep -0.8 21:51:15 10° WNW 21:52:08 17° WNW 21:52:08 17° WNW visible
29 Sep -2.5 19:27:02 10° WNW 19:30:08 32° N 19:33:14 10° ENE visible
29 Sep -2.9 21:04:01 10° WNW 21:06:40 46° NNW 21:06:40 46° NNW visible
30 Sep -3.2 20:16:47 10° WNW 20:20:03 46° NNE 20:21:13 31° ENE visible
30 Sep -0.5 21:53:40 10° WNW 21:54:11 14° WNW 21:54:11 14° WNW visible
01 Oct -2.9 19:29:31 10° WNW 19:32:42 38° NNE 19:35:48 11° E visible
01 Oct -2.6 21:06:20 10° WNW 21:08:46 42° W 21:08:46 42° W visible
02 Oct -3.9 20:19:03 10° WNW 20:22:26 84° NNE 20:23:24 44° ESE visible
03 Oct -3.6 19:31:47 10° WNW 19:35:08 61° NNE 19:38:04 13° ESE visible
03 Oct -1.7 21:08:52 10° W 21:11:03 25° WSW 21:11:03 25° WSW visible
04 Oct -2.8 20:21:24 10° WNW 20:24:36 42° SW 20:25:48 29° SSE visible
05 Oct -3.4 19:34:01 10° WNW 19:37:22 65° SSW 19:40:39 10° SE visible
05 Oct -0.8 21:12:41 10° WSW 21:13:37 11° SW 21:13:38 11° SW visible
06 Oct -1.2 20:24:13 10° W 20:26:31 17° SW 20:28:36 11° S visible
